Location: Berg
(47.2344°N, 9.5296°E)
Time: 08:49:50
(UTC+00:00)

Iridium 4 Rocket - Visible Passes

Search period start: 09 May 2021 00:00
Search period end: 19 May 2021 00:00
Orbit: 586 x 903 km, 86.9° (Epoch: 08 May)

Date Brightness Start Highest point End Pass type
(mag) Time Alt. Az. Time Alt. Az. Time Alt. Az.
09 May 5.4 19:38:34 10° ESE 19:42:20 18° ENE 19:46:11 10° NNE visible
09 May 3.9 21:18:17 27° S 21:21:32 78° W 21:27:29 10° N visible
09 May 6.2 22:59:45 10° W 23:02:33 14° WNW 23:05:24 10° NW visible
10 May 4.0 20:34:45 22° SSE 20:38:22 54° E 20:44:07 10° N visible
10 May 5.5 22:14:30 13° SW 22:18:40 26° WNW 22:23:35 10° NNW visible
11 May 4.9 19:51:13 12° SE 19:55:26 28° E 20:00:22 10° NNE visible
11 May 4.5 21:30:58 18° SSW 21:35:04 51° W 21:40:51 10° N visible
12 May 3.8 20:47:25 19° S 20:51:45 83° E 20:57:42 10° N visible
12 May 6.1 22:28:40 10° WSW 22:32:29 18° WNW 22:36:20 10° NNW visible
13 May 4.3 20:03:50 13° SSE 20:08:40 43° E 20:14:12 10° NNE visible
13 May 5.2 21:43:35 10° SW 21:48:43 33° WNW 21:54:02 10° NNW visible
14 May 5.1 19:21:27 10° SE 19:25:49 22° ENE 19:30:14 10° NNE visible
14 May 4.2 21:00:00 13° SSW 21:05:14 65° W 21:11:08 10° N visible
14 May 6.4 22:44:39 10° W 22:46:23 11° WNW 22:48:08 10° NW visible
15 May 3.9 20:16:22 11° SSE 20:21:59 66° E 20:27:51 10° N visible
15 May 5.9 21:57:58 10° WSW 22:02:27 22° WNW 22:06:59 10° NNW visible
16 May 4.6 19:33:49 10° SE 19:38:59 34° E 19:44:12 10° NNE visible
16 May 4.9 21:13:17 10° SSW 21:18:49 42° W 21:24:24 10° N visible
17 May 3.9 20:29:32 10° S 20:35:25 82° W 20:41:21 10° N visible
17 May 6.3 22:13:07 10° W 22:16:18 15° WNW 22:19:27 10° NW visible
18 May 4.1 19:46:36 10° SSE 19:52:16 52° E 19:57:55 10° NNE visible
18 May 5.6 21:27:30 10° SW 21:32:28 28° WNW 21:37:28 10° NNW visible
